This is the latest recevied weather packets stored in our database for station/object WZ8H. If no packets are shown the sender has not sent any weather packets the latest 1 day(s).
| Time | Temp. | Humidity | Pressure | Rain* | Wind** | Luminosity | Snow |
|---|---|---|---|---|---|---|---|
| 1778011788 | 11.67° C | 93% | 1007.3 hPa | 2.54 mm | 0.89 m/s, 253° | 95 W/m² | - |
| 1778011487 | 11.67° C | 93% | 1007.4 hPa | 2.79 mm | 1.34 m/s, 254° | 84 W/m² | - |
| 1778011150 | 11.67° C | 93% | 1007.3 hPa | 3.05 mm | 1.34 m/s, 261° | 79 W/m² | - |
| 1778010848 | 12.22° C | 93% | 1007.5 hPa | 3.3 mm | 1.34 m/s, 258° | 49 W/m² | - |
| 1778010521 | 12.22° C | 93% | 1007.5 hPa | 3.3 mm | 1.79 m/s, 302° | 62 W/m² | - |
| 1778010217 | 12.22° C | 93% | 1007.4 hPa | 3.3 mm | 1.79 m/s, 333° | 60 W/m² | - |
| 1778009910 | 12.78° C | 92% | 1007.4 hPa | 3.3 mm | 1.34 m/s, 270° | 53 W/m² | - |
| 1778009606 | 12.78° C | 92% | 1007.3 hPa | 3.3 mm | 0.89 m/s, 292° | 40 W/m² | - |
| 1778009305 | 13.33° C | 92% | 1007.1 hPa | 3.56 mm | 0.89 m/s, 273° | 40 W/m² | - |
| 1778009002 | 13.33° C | 93% | 1007 hPa | 3.56 mm | 0.89 m/s, 257° | 77 W/m² | - |
| 1778008676 | 13.33° C | 92% | 1007 hPa | 3.56 mm | 0.45 m/s, 254° | 53 W/m² | - |
| 1778008372 | 13.33° C | 92% | 1006.9 hPa | 3.81 mm | 0.89 m/s, 262° | 58 W/m² | - |
| 1778008047 | 13.33° C | 92% | 1007 hPa | 3.56 mm | 0.89 m/s, 266° | 65 W/m² | - |
| 1778007746 | 13.33° C | 92% | 1007 hPa | 3.05 mm | 0.89 m/s, 251° | 37 W/m² | - |
| 1778007434 | 13.33° C | 92% | 1006.8 hPa | 3.05 mm | 0.89 m/s, 232° | 65 W/m² | - |
| 1778007131 | 13.33° C | 91% | 1006.8 hPa | 2.79 mm | 0.89 m/s, 244° | 40 W/m² | - |
| 1778006802 | 13.89° C | 91% | 1006.8 hPa | 2.54 mm | 0.45 m/s, 259° | 79 W/m² | - |
| 1778006503 | 13.89° C | 91% | 1006.8 hPa | 2.29 mm | 0.45 m/s, 247° | 63 W/m² | - |
| 1778006207 | 13.89° C | 90% | 1006.7 hPa | 2.03 mm | 0.89 m/s, 247° | 76 W/m² | - |
| 1778005899 | 13.89° C | 90% | 1006.7 hPa | 1.78 mm | 0.89 m/s, 230° | 69 W/m² | - |
| 1778005603 | 13.89° C | 89% | 1006.8 hPa | 1.27 mm | 0.89 m/s, 234° | 79 W/m² | - |
| 1778005297 | 14.44° C | 89% | 1006.5 hPa | 1.02 mm | 0.89 m/s, 269° | 79 W/m² | - |
| 1778005001 | 14.44° C | 88% | 1006.5 hPa | 0.76 mm | 0.89 m/s, 252° | 76 W/m² | - |
| 1778004673 | 14.44° C | 88% | 1006.5 hPa | 0.51 mm | 0.89 m/s, 254° | 63 W/m² | - |
| 1778004371 | 15° C | 87% | 1006.5 hPa | 0.25 mm | 0.89 m/s, 255° | 65 W/m² | - |
* Rain latest hour (hover to see other rain measurements)
** Current wind speed in m/s (hover to see current wind gust speed)